Time,TemperatureF,DewpointF,PressureIn,WindDirection,WindDirectionDegrees,WindSpeedMPH,WindSpeedGustMPH,Humidity,HourlyPrecipIn,Conditions,Clouds,dailyrainin,SoftwareType,DateUTC
2013-02-25 00:01:00,24.6,20.2,30.13,WSW,247,0.0,0.0,83,0.00,,,0.00,WUHU21623XXSP,2013-02-25 06:01:00,
2013-02-25 00:06:00,24.4,20.3,30.13,WSW,247,0.0,0.0,84,0.00,,,0.00,WUHU21623XXSP,2013-02-25 06:06:00,
2013-02-25 00:11:00,24.4,20.3,30.13,WSW,247,0.0,0.0,84,0.00,,,0.00,WUHU21623XXSP,2013-02-25 06:11:00,
2013-02-25 00:16:00,24.6,20.5,30.13,WSW,247,0.0,0.0,84,0.00,,,0.00,WUHU21623XXSP,2013-02-25 06:16:00,
2013-02-25 00:21:00,24.8,20.7,30.13,WSW,247,0.0,0.0,84,0.00,,,0.00,WUHU21623XXSP,2013-02-25 06:21:00,
2013-02-25 00:26:00,25.0,20.8,30.13,WSW,247,0.0,0.0,84,0.00,,,0.00,WUHU21623XXSP,2013-02-25 06:26:00,
2013-02-25 00:31:00,25.0,20.8,30.13,WSW,247,0.0,0.0,84,0.00,,,0.00,WUHU21623XXSP,2013-02-25 06:31:00,
2013-02-25 00:36:00,24.6,20.5,30.12,WSW,247,0.0,0.0,84,0.00,,,0.00,WUHU21623XXSP,2013-02-25 06:36:00,
2013-02-25 00:41:00,24.6,20.5,30.12,WSW,247,0.0,0.0,84,0.00,,,0.00,WUHU21623XXSP,2013-02-25 06:41:00,
2013-02-25 00:46:00,24.4,20.3,30.13,WSW,247,0.0,0.0,84,0.00,,,0.00,WUHU21623XXSP,2013-02-25 06:46:00,
2013-02-25 00:51:00,24.4,20.6,30.13,WSW,247,0.0,0.0,85,0.00,,,0.00,WUHU21623XXSP,2013-02-25 06:51:00,
2013-02-25 00:56:00,24.4,20.6,30.12,WSW,247,0.0,0.0,85,0.00,,,0.00,WUHU21623XXSP,2013-02-25 06:56:00,
2013-02-25 01:01:00,24.4,20.6,30.12,WSW,247,0.0,0.0,85,0.00,,,0.00,WUHU21623XXSP,2013-02-25 07:01:00,
2013-02-25 01:06:00,24.4,20.6,30.12,WSW,247,0.0,0.0,85,0.00,,,0.00,WUHU21623XXSP,2013-02-25 07:06:00,
2013-02-25 01:11:00,24.4,20.6,30.12,WSW,247,0.0,0.0,85,0.00,,,0.00,WUHU21623XXSP,2013-02-25 07:11:00,
2013-02-25 01:16:00,24.4,20.6,30.12,WSW,247,0.0,0.0,85,0.00,,,0.00,WUHU21623XXSP,2013-02-25 07:16:00,
2013-02-25 01:21:00,24.4,20.6,30.12,WSW,247,0.0,0.0,85,0.00,,,0.00,WUHU21623XXSP,2013-02-25 07:21:00,
2013-02-25 01:26:00,24.1,20.6,30.12,WSW,247,0.0,0.0,85,0.00,,,0.00,WUHU21623XXSP,2013-02-25 07:26:00,
2013-02-25 01:31:00,24.1,20.2,30.12,WSW,247,0.0,0.0,85,0.00,,,0.00,WUHU21623XXSP,2013-02-25 07:31:00,
2013-02-25 01:36:00,24.1,20.2,30.12,WSW,247,0.0,0.0,85,0.00,,,0.00,WUHU21623XXSP,2013-02-25 07:36:00,
2013-02-25 01:41:00,24.1,20.2,30.12,WSW,247,0.0,0.0,85,0.00,,,0.00,WUHU21623XXSP,2013-02-25 07:41:00,
2013-02-25 01:46:00,23.9,20.0,30.12,WSW,247,0.0,0.0,85,0.00,,,0.00,WUHU21623XXSP,2013-02-25 07:46:00,
2013-02-25 01:51:00,23.7,19.9,30.13,WSW,247,0.0,0.0,85,0.00,,,0.00,WUHU21623XXSP,2013-02-25 07:51:00,
2013-02-25 01:56:00,23.7,20.1,30.13,WSW,247,0.0,0.0,86,0.00,,,0.00,WUHU21623XXSP,2013-02-25 07:56:00,
2013-02-25 02:01:00,23.7,20.1,30.12,WSW,247,0.0,0.0,86,0.00,,,0.00,WUHU21623XXSP,2013-02-25 08:01:00,
2013-02-25 02:06:00,23.5,19.9,30.12,WSW,247,0.0,0.0,86,0.00,,,0.00,WUHU21623XXSP,2013-02-25 08:06:00,
2013-02-25 02:11:00,23.5,19.9,30.12,WSW,247,0.0,0.0,86,0.00,,,0.00,WUHU21623XXSP,2013-02-25 08:11:00,
2013-02-25 02:16:00,23.5,19.9,30.12,WSW,247,0.0,0.0,86,0.00,,,0.00,WUHU21623XXSP,2013-02-25 08:16:00,
2013-02-25 02:21:00,23.5,19.9,30.12,WSW,247,0.0,0.0,86,0.00,,,0.00,WUHU21623XXSP,2013-02-25 08:21:00,
2013-02-25 02:26:00,23.5,19.9,30.11,WSW,247,0.0,0.0,86,0.00,,,0.00,WUHU21623XXSP,2013-02-25 08:26:00,
2013-02-25 02:31:00,23.5,19.9,30.11,WSW,247,0.0,0.0,86,0.00,,,0.00,WUHU21623XXSP,2013-02-25 08:31:00,
2013-02-25 02:36:00,23.5,19.9,30.12,WSW,247,0.0,0.0,86,0.00,,,0.00,WUHU21623XXSP,2013-02-25 08:36:00,
2013-02-25 02:41:00,23.4,19.8,30.12,WSW,247,0.0,0.0,86,0.00,,,0.00,WUHU21623XXSP,2013-02-25 08:41:00,
2013-02-25 02:46:00,23.2,19.6,30.11,WSW,247,0.0,0.0,86,0.00,,,0.00,WUHU21623XXSP,2013-02-25 08:46:00,
2013-02-25 02:51:00,22.8,19.2,30.12,WSW,247,0.0,0.0,86,0.00,,,0.00,WUHU21623XXSP,2013-02-25 08:51:00,
2013-02-25 02:56:00,22.8,19.2,30.11,WSW,247,0.0,0.0,86,0.00,,,0.00,WUHU21623XXSP,2013-02-25 08:56:00,
2013-02-25 03:01:00,22.8,19.2,30.12,WSW,247,0.0,0.0,86,0.00,,,0.00,WUHU21623XXSP,2013-02-25 09:01:00,
2013-02-25 03:06:00,22.6,19.0,30.11,WSW,247,0.0,0.0,86,0.00,,,0.00,WUHU21623XXSP,2013-02-25 09:06:00,
2013-02-25 03:11:00,22.6,19.0,30.11,WSW,247,0.0,0.0,86,0.00,,,0.00,WUHU21623XXSP,2013-02-25 09:11:00,
2013-02-25 03:16:00,22.6,19.0,30.12,WSW,247,0.0,0.0,86,0.00,,,0.00,WUHU21623XXSP,2013-02-25 09:16:00,
2013-02-25 03:21:00,22.6,19.0,30.12,WSW,247,0.0,0.0,86,0.00,,,0.00,WUHU21623XXSP,2013-02-25 09:21:00,
2013-02-25 03:26:00,22.5,18.9,30.12,WSW,247,0.0,0.0,86,0.00,,,0.00,WUHU21623XXSP,2013-02-25 09:26:00,
2013-02-25 03:31:00,22.3,18.7,30.12,WSW,247,0.0,0.0,86,0.00,,,0.00,WUHU21623XXSP,2013-02-25 09:31:00,
2013-02-25 03:36:00,22.5,18.9,30.12,WSW,247,0.0,0.0,86,0.00,,,0.00,WUHU21623XXSP,2013-02-25 09:36:00,
2013-02-25 03:41:00,22.5,18.9,30.12,WSW,247,0.0,0.0,86,0.00,,,0.00,WUHU21623XXSP,2013-02-25 09:41:00,
2013-02-25 03:46:00,22.5,18.9,30.12,WSW,247,0.0,0.0,86,0.00,,,0.00,WUHU21623XXSP,2013-02-25 09:46:00,
2013-02-25 03:51:00,22.6,19.0,30.12,WSW,247,0.0,0.0,86,0.00,,,0.00,WUHU21623XXSP,2013-02-25 09:51:00,
2013-02-25 03:56:00,22.8,19.0,30.12,WSW,247,0.0,0.0,86,0.00,,,0.00,WUHU21623XXSP,2013-02-25 09:56:00,
2013-02-25 04:01:00,22.8,19.5,30.12,WSW,247,0.0,0.0,87,0.00,,,0.00,WUHU21623XXSP,2013-02-25 10:01:00,
2013-02-25 04:06:00,22.8,19.5,30.12,WSW,247,0.0,0.0,87,0.00,,,0.00,WUHU21623XXSP,2013-02-25 10:06:00,
2013-02-25 04:11:00,22.8,19.5,30.13,WSW,247,0.0,0.0,87,0.00,,,0.00,WUHU21623XXSP,2013-02-25 10:11:00,
2013-02-25 04:16:00,22.8,19.5,30.13,WSW,247,0.0,0.0,87,0.00,,,0.00,WUHU21623XXSP,2013-02-25 10:16:00,
2013-02-25 04:21:00,22.6,19.0,30.13,WSW,247,0.0,0.0,86,0.00,,,0.00,WUHU21623XXSP,2013-02-25 10:21:00,
2013-02-25 04:26:00,22.6,19.0,30.13,WSW,247,0.0,0.0,86,0.00,,,0.00,WUHU21623XXSP,2013-02-25 10:26:00,
2013-02-25 04:31:00,22.6,19.0,30.13,WSW,247,0.0,0.0,86,0.00,,,0.00,WUHU21623XXSP,2013-02-25 10:31:00,
2013-02-25 04:36:00,22.5,18.9,30.13,WSW,247,0.0,0.0,86,0.00,,,0.00,WUHU21623XXSP,2013-02-25 10:36:00,
2013-02-25 04:41:00,22.3,18.7,30.13,WSW,247,0.0,0.0,86,0.00,,,0.00,WUHU21623XXSP,2013-02-25 10:41:00,
2013-02-25 04:46:00,22.3,18.9,30.13,WSW,247,0.0,0.0,86,0.00,,,0.00,WUHU21623XXSP,2013-02-25 10:46:00,
2013-02-25 04:51:00,22.5,19.1,30.13,WSW,247,0.0,0.0,87,0.00,,,0.00,WUHU21623XXSP,2013-02-25 10:51:00,
2013-02-25 04:56:00,22.5,19.1,30.13,WSW,247,0.0,0.0,87,0.00,,,0.00,WUHU21623XXSP,2013-02-25 10:56:00,
2013-02-25 05:01:00,22.5,19.1,30.13,WSW,247,0.0,0.0,87,0.00,,,0.00,WUHU21623XXSP,2013-02-25 11:01:00,
2013-02-25 05:06:00,22.3,18.9,30.13,WSW,247,0.0,0.0,87,0.00,,,0.00,WUHU21623XXSP,2013-02-25 11:06:00,
2013-02-25 05:11:00,22.5,19.1,30.13,WSW,247,0.0,0.0,87,0.00,,,0.00,WUHU21623XXSP,2013-02-25 11:11:00,
2013-02-25 05:16:00,22.3,19.1,30.14,WSW,247,0.0,0.0,87,0.00,,,0.00,WUHU21623XXSP,2013-02-25 11:16:00,
2013-02-25 05:21:00,22.3,18.9,30.14,WSW,247,0.0,0.0,87,0.00,,,0.00,WUHU21623XXSP,2013-02-25 11:21:00,
2013-02-25 05:26:00,22.3,18.9,30.14,WSW,247,0.0,0.0,87,0.00,,,0.00,WUHU21623XXSP,2013-02-25 11:26:00,
2013-02-25 05:31:00,22.1,18.8,30.14,WSW,247,0.0,0.0,87,0.00,,,0.00,WUHU21623XXSP,2013-02-25 11:31:00,
2013-02-25 05:36:00,22.3,18.9,30.14,WSW,247,0.0,0.0,87,0.00,,,0.00,WUHU21623XXSP,2013-02-25 11:36:00,
2013-02-25 05:41:00,22.3,18.9,30.14,WSW,247,0.0,0.0,87,0.00,,,0.00,WUHU21623XXSP,2013-02-25 11:41:00,
2013-02-25 05:46:00,22.3,18.9,30.15,WSW,247,0.0,0.0,87,0.00,,,0.00,WUHU21623XXSP,2013-02-25 11:46:00,
2013-02-25 05:51:00,22.3,18.9,30.15,WSW,247,0.0,0.0,87,0.00,,,0.00,WUHU21623XXSP,2013-02-25 11:51:00,
2013-02-25 05:56:00,21.9,18.6,30.16,WSW,247,0.0,0.0,87,0.00,,,0.00,WUHU21623XXSP,2013-02-25 11:56:00,
2013-02-25 06:01:00,21.7,18.4,30.15,WSW,247,0.0,0.0,87,0.00,,,0.00,WUHU21623XXSP,2013-02-25 12:01:00,
2013-02-25 06:07:00,21.9,18.6,30.16,WSW,247,0.0,0.0,87,0.00,,,0.00,WUHU21623XXSP,2013-02-25 12:07:00,
2013-02-25 06:12:00,21.7,18.4,30.16,WSW,247,0.0,0.0,87,0.00,,,0.00,WUHU21623XXSP,2013-02-25 12:12:00,
2013-02-25 06:17:00,21.6,18.4,30.16,WSW,247,0.0,0.0,87,0.00,,,0.00,WUHU21623XXSP,2013-02-25 12:17:00,
2013-02-25 06:22:00,21.6,18.2,30.16,WSW,247,0.0,0.0,87,0.00,,,0.00,WUHU21623XXSP,2013-02-25 12:22:00,
2013-02-25 06:27:00,21.4,18.0,30.16,WSW,247,0.0,0.0,87,0.00,,,0.00,WUHU21623XXSP,2013-02-25 12:27:00,
2013-02-25 06:32:00,21.4,18.2,30.16,WSW,247,0.0,0.0,87,0.00,,,0.00,WUHU21623XXSP,2013-02-25 12:32:00,
2013-02-25 06:37:00,21.7,18.4,30.16,WSW,247,0.0,0.0,87,0.00,,,0.00,WUHU21623XXSP,2013-02-25 12:37:00,
2013-02-25 06:42:00,21.9,18.6,30.16,WSW,247,0.0,0.0,87,0.00,,,0.00,WUHU21623XXSP,2013-02-25 12:42:00,
2013-02-25 06:47:00,22.3,19.0,30.15,WSW,247,0.0,0.0,88,0.00,,,0.00,WUHU21623XXSP,2013-02-25 12:47:00,
2013-02-25 06:52:00,22.8,19.8,30.15,WSW,247,0.0,0.0,88,0.00,,,0.00,WUHU21623XXSP,2013-02-25 12:52:00,
2013-02-25 06:57:00,22.8,19.8,30.15,WSW,247,0.0,0.0,88,0.00,,,0.00,WUHU21623XXSP,2013-02-25 12:57:00,
2013-02-25 07:02:00,23.0,19.9,30.15,WSW,247,0.0,0.0,88,0.00,,,0.00,WUHU21623XXSP,2013-02-25 13:02:00,
2013-02-25 07:07:00,23.5,20.5,30.14,WSW,247,0.0,0.0,88,0.00,,,0.00,WUHU21623XXSP,2013-02-25 13:07:00,
2013-02-25 07:12:00,23.9,20.8,30.14,WSW,247,0.0,0.0,88,0.00,,,0.00,WUHU21623XXSP,2013-02-25 13:12:00,
2013-02-25 07:18:00,24.1,21.0,30.14,WSW,247,0.0,0.0,88,0.00,,,0.00,WUHU21623XXSP,2013-02-25 13:18:00,
2013-02-25 07:23:00,24.6,21.6,30.14,WSW,247,0.0,0.0,88,0.00,,,0.00,WUHU21623XXSP,2013-02-25 13:23:00,
2013-02-25 07:28:00,24.6,21.6,30.14,WSW,247,0.0,0.0,88,0.00,,,0.00,WUHU21623XXSP,2013-02-25 13:28:00,
2013-02-25 07:33:00,25.0,21.9,30.14,WSW,247,0.0,0.0,88,0.00,,,0.00,WUHU21623XXSP,2013-02-25 13:33:00,
2013-02-25 07:38:00,25.7,22.6,30.14,WSW,247,0.0,0.0,88,0.00,,,0.00,WUHU21623XXSP,2013-02-25 13:38:00,
2013-02-25 07:44:00,26.2,23.1,30.13,ESE,112,0.0,0.0,88,0.00,,,0.00,WUHU21623XXSP,2013-02-25 13:44:00,
2013-02-25 07:49:00,26.6,23.5,30.13,ESE,112,0.0,0.0,88,0.00,,,0.00,WUHU21623XXSP,2013-02-25 13:49:00,
2013-02-25 07:54:00,27.0,23.9,30.13,ESE,112,0.0,0.0,88,0.00,,,0.00,WUHU21623XXSP,2013-02-25 13:54:00,
2013-02-25 07:59:00,27.3,24.2,30.13,ESE,112,0.0,0.0,88,0.00,,,0.00,WUHU21623XXSP,2013-02-25 13:59:00,
2013-02-25 08:04:00,28.2,25.1,30.13,ESE,112,3.1,3.1,88,0.00,,,0.00,WUHU21623XXSP,2013-02-25 14:04:00,
2013-02-25 08:09:00,28.6,25.2,30.13,SE,135,0.0,3.1,87,0.00,,,0.00,WUHU21623XXSP,2013-02-25 14:09:00,
2013-02-25 08:14:00,28.9,25.6,30.13,ESE,112,0.0,7.4,87,0.00,,,0.00,WUHU21623XXSP,2013-02-25 14:14:00,
2013-02-25 08:19:00,29.3,25.9,30.12,ESE,112,0.0,7.4,87,0.00,,,0.00,WUHU21623XXSP,2013-02-25 14:19:00,
2013-02-25 08:24:00,29.7,26.0,30.13,ESE,112,0.0,0.0,86,0.00,,,0.00,WUHU21623XXSP,2013-02-25 14:24:00,
2013-02-25 08:29:00,30.4,26.7,30.12,ESE,112,5.8,5.8,86,0.00,,,0.00,WUHU21623XXSP,2013-02-25 14:29:00,
2013-02-25 08:34:00,31.1,27.2,30.12,SE,135,0.0,5.8,86,0.00,,,0.00,WUHU21623XXSP,2013-02-25 14:34:00,
2013-02-25 08:39:00,31.3,27.3,30.12,SE,135,8.5,8.5,85,0.00,,,0.00,WUHU21623XXSP,2013-02-25 14:39:00,
2013-02-25 08:44:00,31.8,27.4,30.12,SE,135,0.0,8.5,84,0.00,,,0.00,WUHU21623XXSP,2013-02-25 14:44:00,
2013-02-25 08:49:00,32.2,27.6,30.13,SE,135,0.0,8.5,83,0.00,,,0.00,WUHU21623XXSP,2013-02-25 14:49:00,
2013-02-25 08:54:00,32.5,27.8,30.13,ESE,112,1.6,1.6,83,0.00,,,0.00,WUHU21623XXSP,2013-02-25 14:54:00,
2013-02-25 08:59:00,32.7,27.8,30.14,SE,135,0.0,3.6,82,0.00,,,0.00,WUHU21623XXSP,2013-02-25 14:59:00,
2013-02-25 09:04:00,33.1,28.0,30.14,SE,135,0.0,3.6,82,0.00,,,0.00,WUHU21623XXSP,2013-02-25 15:04:00,
2013-02-25 09:09:00,33.4,28.2,30.13,SSE,157,0.0,6.3,81,0.00,,,0.00,WUHU21623XXSP,2013-02-25 15:09:00,
2013-02-25 09:14:00,34.0,28.7,30.14,SE,135,0.0,6.3,81,0.00,,,0.00,WUHU21623XXSP,2013-02-25 15:14:00,
2013-02-25 09:19:00,34.2,28.6,30.13,SE,135,1.8,2.9,80,0.00,,,0.00,WUHU21623XXSP,2013-02-25 15:19:00,
2013-02-25 09:24:00,34.3,28.8,30.13,SE,135,2.0,2.0,80,0.00,,,0.00,WUHU21623XXSP,2013-02-25 15:24:00,
2013-02-25 09:29:00,34.7,28.8,30.13,SE,135,0.0,2.0,79,0.00,,,0.00,WUHU21623XXSP,2013-02-25 15:29:00,
2013-02-25 09:34:00,34.9,29.0,30.13,SE,135,4.9,4.9,79,0.00,,,0.00,WUHU21623XXSP,2013-02-25 15:34:00,
2013-02-25 09:39:00,35.1,29.2,30.13,SE,135,0.0,4.9,79,0.00,,,0.00,WUHU21623XXSP,2013-02-25 15:39:00,
2013-02-25 09:44:00,35.2,29.2,30.13,ESE,112,0.0,0.0,78,0.00,,,0.00,WUHU21623XXSP,2013-02-25 15:44:00,
2013-02-25 09:49:00,35.4,29.2,30.13,ESE,112,0.0,0.0,78,0.00,,,0.00,WUHU21623XXSP,2013-02-25 15:49:00,
2013-02-25 09:54:00,36.0,29.7,30.13,SE,135,0.0,0.0,78,0.00,,,0.00,WUHU21623XXSP,2013-02-25 15:54:00,
2013-02-25 09:59:00,36.3,29.8,30.12,SE,135,0.0,0.0,77,0.00,,,0.00,WUHU21623XXSP,2013-02-25 15:59:00,
2013-02-25 10:04:00,36.9,29.8,30.12,SE,135,0.0,0.0,77,0.00,,,0.00,WUHU21623XXSP,2013-02-25 16:04:00,
2013-02-25 10:09:00,37.0,30.0,30.12,SE,135,7.6,7.6,76,0.00,,,0.00,WUHU21623XXSP,2013-02-25 16:09:00,
2013-02-25 10:14:00,37.2,30.0,30.12,ESE,112,1.8,7.6,75,0.00,,,0.00,WUHU21623XXSP,2013-02-25 16:14:00,
2013-02-25 10:19:00,37.6,30.4,30.12,ESE,112,0.0,7.6,75,0.00,,,0.00,WUHU21623XXSP,2013-02-25 16:19:00,
2013-02-25 10:24:00,37.6,30.0,30.12,ESE,112,0.0,1.8,74,0.00,,,0.00,WUHU21623XXSP,2013-02-25 16:24:00,
2013-02-25 10:30:00,38.1,30.2,30.11,SE,135,0.0,0.2,73,0.00,,,0.00,WUHU21623XXSP,2013-02-25 16:30:00,
2013-02-25 10:35:00,38.5,30.5,30.11,SE,135,8.3,8.3,73,0.00,,,0.00,WUHU21623XXSP,2013-02-25 16:35:00,
2013-02-25 10:40:00,38.7,30.0,30.11,SE,135,6.9,8.3,71,0.00,,,0.00,WUHU21623XXSP,2013-02-25 16:40:00,
2013-02-25 10:45:00,38.8,30.0,30.11,ESE,112,0.0,6.9,71,0.00,,,0.00,WUHU21623XXSP,2013-02-25 16:45:00,
2013-02-25 10:50:00,39.0,30.2,30.11,ESE,112,0.0,6.9,71,0.00,,,0.00,WUHU21623XXSP,2013-02-25 16:50:00,
2013-02-25 10:55:00,39.0,30.0,30.11,SE,135,6.3,8.1,70,0.00,,,0.00,WUHU21623XXSP,2013-02-25 16:55:00,
2013-02-25 11:00:00,39.0,30.2,30.11,ESE,112,0.7,8.1,70,0.00,,,0.00,WUHU21623XXSP,2013-02-25 17:00:00,
2013-02-25 11:05:00,39.4,30.4,30.11,SE,135,2.9,6.9,70,0.00,,,0.00,WUHU21623XXSP,2013-02-25 17:05:00,
2013-02-25 11:10:00,39.7,30.2,30.11,ESE,112,8.9,8.9,69,0.00,,,0.00,WUHU21623XXSP,2013-02-25 17:10:00,
2013-02-25 11:15:00,39.9,30.2,30.11,SSE,157,6.7,8.9,68,0.00,,,0.00,WUHU21623XXSP,2013-02-25 17:15:00,
2013-02-25 11:20:00,40.1,30.0,30.11,SSE,157,0.7,6.7,67,0.00,,,0.00,WUHU21623XXSP,2013-02-25 17:20:00,
2013-02-25 11:25:00,40.1,30.7,30.11,East,90,2.9,6.7,67,0.00,,,0.00,WUHU21623XXSP,2013-02-25 17:25:00,
2013-02-25 11:30:00,40.1,30.0,30.11,East,90,2.9,4.3,67,0.00,,,0.00,WUHU21623XXSP,2013-02-25 17:30:00,
2013-02-25 11:35:00,40.3,29.8,30.12,ESE,112,7.4,7.4,66,0.00,,,0.00,WUHU21623XXSP,2013-02-25 17:35:00,
2013-02-25 11:40:00,40.3,29.6,30.12,SE,135,5.6,7.4,66,0.00,,,0.00,WUHU21623XXSP,2013-02-25 17:40:00,
2013-02-25 11:45:00,40.5,29.6,30.12,ESE,112,1.6,5.6,65,0.00,,,0.00,WUHU21623XXSP,2013-02-25 17:45:00,
2013-02-25 11:50:00,40.6,29.8,30.12,SE,135,0.0,5.6,65,0.00,,,0.00,WUHU21623XXSP,2013-02-25 17:50:00,
2013-02-25 11:55:00,40.8,30.3,30.12,SE,135,5.1,5.1,66,0.00,,,0.00,WUHU21623XXSP,2013-02-25 17:55:00,
2013-02-25 12:00:00,41.2,30.3,30.12,ESE,112,7.4,7.4,65,0.00,,,0.00,WUHU21623XXSP,2013-02-25 18:00:00,
2013-02-25 12:05:00,41.4,30.5,30.11,SE,135,7.8,7.8,65,0.00,,,0.00,WUHU21623XXSP,2013-02-25 18:05:00,
2013-02-25 12:10:00,41.4,30.5,30.11,SE,135,6.0,7.8,64,0.00,,,0.00,WUHU21623XXSP,2013-02-25 18:10:00,
2013-02-25 12:15:00,41.5,30.2,30.11,SE,135,0.0,7.2,64,0.00,,,0.00,WUHU21623XXSP,2013-02-25 18:15:00,
2013-02-25 12:20:00,41.5,30.2,30.10,SE,135,1.1,7.2,64,0.00,,,0.00,WUHU21623XXSP,2013-02-25 18:20:00,
2013-02-25 12:25:00,41.5,30.2,30.10,SE,135,3.1,5.6,64,0.00,,,0.00,WUHU21623XXSP,2013-02-25 18:25:00,
2013-02-25 12:30:00,41.7,30.8,30.10,SSE,157,2.9,3.1,65,0.00,,,0.00,WUHU21623XXSP,2013-02-25 18:30:00,
2013-02-25 12:35:00,41.7,30.8,30.09,SSE,157,7.4,7.4,65,0.00,,,0.00,WUHU21623XXSP,2013-02-25 18:35:00,
2013-02-25 12:40:00,41.9,30.6,30.09,ESE,112,6.9,8.5,64,0.00,,,0.00,WUHU21623XXSP,2013-02-25 18:40:00,
2013-02-25 12:46:00,41.5,30.2,30.09,ESE,112,0.0,8.5,64,0.00,,,0.00,WUHU21623XXSP,2013-02-25 18:46:00,
2013-02-25 12:51:00,41.5,30.2,30.09,SE,135,3.4,8.1,64,0.00,,,0.00,WUHU21623XXSP,2013-02-25 18:51:00,
2013-02-25 12:56:00,41.9,30.6,30.09,ESE,112,6.7,6.7,64,0.00,,,0.00,WUHU21623XXSP,2013-02-25 18:56:00,
2013-02-25 13:01:00,41.9,30.3,30.08,ESE,112,6.7,6.7,64,0.00,,,0.00,WUHU21623XXSP,2013-02-25 19:01:00,
2013-02-25 13:06:00,41.9,30.6,30.08,ESE,112,5.6,6.7,64,0.00,,,0.00,WUHU21623XXSP,2013-02-25 19:06:00,
2013-02-25 13:11:00,41.9,30.6,30.08,SE,135,5.6,6.9,64,0.00,,,0.00,WUHU21623XXSP,2013-02-25 19:11:00,
2013-02-25 13:16:00,42.1,30.7,30.08,SE,135,8.5,8.5,64,0.00,,,0.00,WUHU21623XXSP,2013-02-25 19:16:00,
2013-02-25 13:21:00,42.1,30.7,30.06,ESE,112,6.5,11.2,64,0.00,,,0.00,WUHU21623XXSP,2013-02-25 19:21:00,
2013-02-25 13:26:00,42.1,30.7,30.07,SE,135,9.2,11.2,63,0.00,,,0.00,WUHU21623XXSP,2013-02-25 19:26:00,
2013-02-25 13:31:00,42.1,30.3,30.06,SE,135,6.0,10.5,63,0.00,,,0.00,WUHU21623XXSP,2013-02-25 19:31:00,
2013-02-25 13:36:00,42.1,30.3,30.06,ESE,112,7.6,9.4,63,0.00,,,0.00,WUHU21623XXSP,2013-02-25 19:36:00,
2013-02-25 13:41:00,42.1,30.3,30.06,SE,135,11.0,11.0,63,0.00,,,0.00,WUHU21623XXSP,2013-02-25 19:41:00,
2013-02-25 13:46:00,42.3,30.1,30.06,SE,135,2.5,11.0,62,0.00,,,0.00,WUHU21623XXSP,2013-02-25 19:46:00,
2013-02-25 13:51:00,42.1,30.3,30.05,ESE,112,7.6,11.0,63,0.00,,,0.00,WUHU21623XXSP,2013-02-25 19:51:00,
2013-02-25 13:56:00,42.1,30.3,30.04,ESE,112,0.0,8.1,63,0.00,,,0.00,WUHU21623XXSP,2013-02-25 19:56:00,
2013-02-25 14:01:00,42.3,30.7,30.05,ESE,112,6.9,8.1,64,0.00,,,0.00,WUHU21623XXSP,2013-02-25 20:01:00,
2013-02-25 14:06:00,42.1,30.0,30.05,East,90,5.6,6.9,62,0.00,,,0.00,WUHU21623XXSP,2013-02-25 20:06:00,
2013-02-25 14:11:00,41.9,30.2,30.05,ESE,112,10.3,10.3,63,0.00,,,0.00,WUHU21623XXSP,2013-02-25 20:11:00,
2013-02-25 14:16:00,41.9,29.8,30.06,SE,135,8.5,10.3,62,0.00,,,0.00,WUHU21623XXSP,2013-02-25 20:16:00,
2013-02-25 14:21:00,42.3,30.0,30.05,WSW,247,7.8,9.2,62,0.00,,,0.00,WUHU21623XXSP,2013-02-25 20:21:00,
2013-02-25 14:26:00,42.3,30.1,30.06,WSW,247,4.3,10.1,62,0.00,,,0.00,WUHU21623XXSP,2013-02-25 20:26:00,
2013-02-25 14:31:00,42.6,29.9,30.06,WSW,247,6.9,10.1,61,0.00,,,0.00,WUHU21623XXSP,2013-02-25 20:31:00,
2013-02-25 14:36:00,42.4,29.5,30.05,WSW,247,3.6,6.9,60,0.00,,,0.00,WUHU21623XXSP,2013-02-25 20:36:00,
2013-02-25 14:41:00,42.6,30.1,30.06,WSW,247,2.2,3.6,61,0.00,,,0.00,WUHU21623XXSP,2013-02-25 20:41:00,
2013-02-25 14:46:00,42.6,30.1,30.06,WSW,247,6.3,6.3,61,0.00,,,0.00,WUHU21623XXSP,2013-02-25 20:46:00,
2013-02-25 14:51:00,42.6,30.1,30.06,WSW,247,4.7,6.3,62,0.00,,,0.00,WUHU21623XXSP,2013-02-25 20:51:00,
2013-02-25 14:56:00,42.6,30.5,30.06,WSW,247,0.0,4.7,62,0.00,,,0.00,WUHU21623XXSP,2013-02-25 20:56:00,
2013-02-25 15:01:00,42.4,30.3,30.06,ENE,67,0.2,3.6,62,0.00,,,0.00,WUHU21623XXSP,2013-02-25 21:01:00,
2013-02-25 15:06:00,42.4,30.3,30.06,ENE,67,0.0,3.6,62,0.00,,,0.00,WUHU21623XXSP,2013-02-25 21:06:00,
2013-02-25 15:11:00,42.4,30.3,30.06,East,90,0.0,0.0,62,0.00,,,0.00,WUHU21623XXSP,2013-02-25 21:11:00,
2013-02-25 15:16:00,42.6,30.8,30.06,WSW,247,2.0,2.0,63,0.00,,,0.00,WUHU21623XXSP,2013-02-25 21:16:00,
2013-02-25 15:21:00,42.6,30.8,30.05,ESE,112,4.9,4.9,63,0.00,,,0.00,WUHU21623XXSP,2013-02-25 21:21:00,
2013-02-25 15:26:00,43.0,31.2,30.05,ESE,112,6.0,6.0,63,0.00,,,0.00,WUHU21623XXSP,2013-02-25 21:26:00,
2013-02-25 15:31:00,42.6,30.8,30.04,ENE,67,1.6,6.0,63,0.00,,,0.00,WUHU21623XXSP,2013-02-25 21:31:00,
2013-02-25 15:36:00,42.4,30.7,30.04,ENE,67,0.0,8.3,63,0.00,,,0.00,WUHU21623XXSP,2013-02-25 21:36:00,
2013-02-25 15:41:00,42.4,30.3,30.03,ENE,67,4.9,8.3,64,0.00,,,0.00,WUHU21623XXSP,2013-02-25 21:41:00,
2013-02-25 15:46:00,42.1,30.7,30.03,East,90,1.8,8.3,64,0.00,,,0.00,WUHU21623XXSP,2013-02-25 21:46:00,
2013-02-25 15:51:00,42.1,30.3,30.03,ESE,112,6.0,8.7,63,0.00,,,0.00,WUHU21623XXSP,2013-02-25 21:51:00,
2013-02-25 15:56:00,42.1,30.7,30.03,East,90,3.6,8.7,64,0.00,,,0.00,WUHU21623XXSP,2013-02-25 21:56:00,
2013-02-25 16:01:00,41.9,31.0,30.03,East,90,2.9,4.3,65,0.00,,,0.00,WUHU21623XXSP,2013-02-25 22:01:00,
2013-02-25 16:06:00,41.7,30.8,30.03,ENE,67,0.0,7.2,65,0.00,,,0.00,WUHU21623XXSP,2013-02-25 22:06:00,
2013-02-25 16:11:00,41.5,31.0,30.02,East,90,2.2,8.1,66,0.00,,,0.00,WUHU21623XXSP,2013-02-25 22:11:00,
2013-02-25 16:16:00,41.2,31.2,30.03,ENE,67,0.0,8.1,67,0.00,,,0.00,WUHU21623XXSP,2013-02-25 22:16:00,
2013-02-25 16:22:00,41.2,31.4,30.03,East,90,2.2,2.5,68,0.00,,,0.00,WUHU21623XXSP,2013-02-25 22:22:00,
2013-02-25 16:27:00,40.8,31.1,30.02,ENE,67,4.7,4.7,68,0.00,,,0.00,WUHU21623XXSP,2013-02-25 22:27:00,
2013-02-25 16:32:00,40.8,31.4,30.02,ENE,67,6.0,6.0,69,0.00,,,0.00,WUHU21623XXSP,2013-02-25 22:32:00,
2013-02-25 16:37:00,40.6,31.6,30.02,East,90,7.2,7.2,70,0.00,,,0.00,WUHU21623XXSP,2013-02-25 22:37:00,
2013-02-25 16:42:00,40.3,31.3,30.01,East,90,3.4,7.2,70,0.00,,,0.00,WUHU21623XXSP,2013-02-25 22:42:00,
2013-02-25 16:47:00,39.9,30.9,30.01,ENE,67,0.0,3.4,70,0.00,,,0.00,WUHU21623XXSP,2013-02-25 22:47:00,
2013-02-25 16:52:00,39.7,30.9,30.00,ENE,67,7.8,10.1,70,0.00,,,0.00,WUHU21623XXSP,2013-02-25 22:52:00,
2013-02-25 16:57:00,39.4,31.0,30.01,ENE,67,4.9,10.1,72,0.00,,,0.00,WUHU21623XXSP,2013-02-25 22:57:00,
2013-02-25 17:02:00,39.4,31.0,30.02,ENE,67,6.9,6.9,72,0.00,,,0.00,WUHU21623XXSP,2013-02-25 23:02:00,
2013-02-25 17:07:00,39.4,31.0,30.02,ENE,67,5.6,6.9,72,0.00,,,0.00,WUHU21623XXSP,2013-02-25 23:07:00,
2013-02-25 17:12:00,39.0,30.9,30.02,East,90,1.6,5.6,72,0.00,,,0.00,WUHU21623XXSP,2013-02-25 23:12:00,
2013-02-25 17:17:00,38.8,30.9,30.02,ENE,67,5.8,5.8,73,0.00,,,0.00,WUHU21623XXSP,2013-02-25 23:17:00,
2013-02-25 17:22:00,38.8,30.9,30.02,ENE,67,0.0,5.8,73,0.00,,,0.00,WUHU21623XXSP,2013-02-25 23:22:00,
2013-02-25 17:27:00,38.5,30.5,30.01,ENE,67,7.6,7.6,73,0.00,,,0.00,WUHU21623XXSP,2013-02-25 23:27:00,
2013-02-25 17:32:00,38.5,30.9,30.01,ENE,67,0.0,7.6,74,0.00,,,0.00,WUHU21623XXSP,2013-02-25 23:32:00,
2013-02-25 17:37:00,37.9,30.4,30.01,NE,45,8.1,8.1,74,0.00,,,0.00,WUHU21623XXSP,2013-02-25 23:37:00,
2013-02-25 17:42:00,37.8,30.4,30.01,NE,45,6.0,8.1,74,0.00,,,0.00,WUHU21623XXSP,2013-02-25 23:42:00,
2013-02-25 17:47:00,37.6,30.4,30.00,NE,45,0.0,7.6,75,0.00,,,0.00,WUHU21623XXSP,2013-02-25 23:47:00,
2013-02-25 17:52:00,37.2,30.0,30.00,NE,45,4.0,7.6,75,0.00,,,0.00,WUHU21623XXSP,2013-02-25 23:52:00,
2013-02-25 17:57:00,37.2,30.0,30.00,NE,45,0.0,6.9,75,0.00,,,0.00,WUHU21623XXSP,2013-02-25 23:57:00,
2013-02-25 18:02:00,37.2,30.3,30.00,NE,45,2.7,6.9,76,0.00,,,0.00,WUHU21623XXSP,2013-02-26 00:02:00,
2013-02-25 18:07:00,37.0,30.2,30.00,NE,45,3.8,4.5,76,0.00,,,0.00,WUHU21623XXSP,2013-02-26 00:07:00,
2013-02-25 18:12:00,36.9,30.0,30.00,NE,45,4.9,4.9,76,0.00,,,0.00,WUHU21623XXSP,2013-02-26 00:12:00,
2013-02-25 18:17:00,36.9,30.0,29.99,East,90,6.5,6.5,76,0.00,,,0.00,WUHU21623XXSP,2013-02-26 00:17:00,
2013-02-25 18:22:00,36.7,30.0,29.99,ENE,67,6.9,7.2,76,0.00,,,0.00,WUHU21623XXSP,2013-02-26 00:22:00,
2013-02-25 18:27:00,36.7,29.8,29.99,ENE,67,0.0,7.2,76,0.00,,,0.00,WUHU21623XXSP,2013-02-26 00:27:00,
2013-02-25 18:32:00,36.7,29.8,29.99,ENE,67,4.3,5.8,76,0.00,,,0.00,WUHU21623XXSP,2013-02-26 00:32:00,
2013-02-25 18:37:00,36.3,29.8,30.00,ENE,67,2.7,4.3,77,0.00,,,0.00,WUHU21623XXSP,2013-02-26 00:37:00,
2013-02-25 18:42:00,36.3,29.8,30.01,ENE,67,0.0,2.9,77,0.00,,,0.00,WUHU21623XXSP,2013-02-26 00:42:00,
2013-02-25 18:47:00,36.3,29.8,30.01,ENE,67,3.6,3.6,77,0.00,,,0.00,WUHU21623XXSP,2013-02-26 00:47:00,
2013-02-25 18:52:00,36.0,29.7,30.00,ENE,67,3.4,6.0,78,0.00,,,0.00,WUHU21623XXSP,2013-02-26 00:52:00,
2013-02-25 18:57:00,36.0,29.7,29.99,ENE,67,7.2,9.2,78,0.00,,,0.00,WUHU21623XXSP,2013-02-26 00:57:00,
2013-02-25 19:02:00,35.8,29.6,29.97,ENE,67,5.4,9.2,78,0.00,,,0.00,WUHU21623XXSP,2013-02-26 01:02:00,
2013-02-25 19:07:00,35.8,29.6,29.98,ENE,67,6.7,6.7,78,0.00,,,0.00,WUHU21623XXSP,2013-02-26 01:07:00,
2013-02-25 19:12:00,35.4,29.6,29.97,ENE,67,5.8,6.7,78,0.00,,,0.00,WUHU21623XXSP,2013-02-26 01:12:00,
2013-02-25 19:17:00,35.4,29.5,29.96,ENE,67,5.1,6.5,79,0.00,,,0.00,WUHU21623XXSP,2013-02-26 01:17:00,
2013-02-25 19:22:00,35.4,29.5,29.96,ENE,67,7.2,9.2,79,0.00,,,0.00,WUHU21623XXSP,2013-02-26 01:22:00,
2013-02-25 19:27:00,35.4,29.5,29.96,ENE,67,7.2,9.2,79,0.00,,,0.00,WUHU21623XXSP,2013-02-26 01:27:00,
2013-02-25 19:32:00,35.4,29.5,29.96,ENE,67,6.9,7.2,79,0.00,,,0.00,WUHU21623XXSP,2013-02-26 01:32:00,
2013-02-25 19:37:00,35.4,29.5,29.96,ENE,67,7.2,7.2,79,0.00,,,0.00,WUHU21623XXSP,2013-02-26 01:37:00,
2013-02-25 19:42:00,35.4,29.5,29.96,ENE,67,9.4,9.4,79,0.00,,,0.00,WUHU21623XXSP,2013-02-26 01:42:00,
2013-02-25 19:47:00,35.4,29.5,29.97,NE,45,0.0,9.4,79,0.00,,,0.00,WUHU21623XXSP,2013-02-26 01:47:00,
2013-02-25 19:52:00,35.4,29.3,29.97,ENE,67,0.0,9.4,79,0.00,,,0.00,WUHU21623XXSP,2013-02-26 01:52:00,
2013-02-25 19:57:00,35.2,29.3,29.97,ENE,67,8.3,8.3,79,0.00,,,0.00,WUHU21623XXSP,2013-02-26 01:57:00,
2013-02-25 20:03:00,35.2,29.3,29.98,ENE,67,1.8,8.3,79,0.00,,,0.00,WUHU21623XXSP,2013-02-26 02:03:00,
2013-02-25 20:08:00,34.9,29.0,29.98,ENE,67,6.3,6.3,79,0.00,,,0.00,WUHU21623XXSP,2013-02-26 02:08:00,
2013-02-25 20:13:00,34.9,29.3,29.97,ENE,67,3.8,6.3,80,0.00,,,0.00,WUHU21623XXSP,2013-02-26 02:13:00,
2013-02-25 20:18:00,34.7,29.1,29.98,East,90,1.8,3.8,80,0.00,,,0.00,WUHU21623XXSP,2013-02-26 02:18:00,
2013-02-25 20:23:00,34.3,28.9,29.99,ENE,67,0.0,4.7,80,0.00,,,0.00,WUHU21623XXSP,2013-02-26 02:23:00,
2013-02-25 20:28:00,34.3,28.8,29.99,ENE,67,4.3,4.3,80,0.00,,,0.00,WUHU21623XXSP,2013-02-26 02:28:00,
2013-02-25 20:33:00,34.3,28.8,29.99,ENE,67,0.0,4.5,80,0.00,,,0.00,WUHU21623XXSP,2013-02-26 02:33:00,
2013-02-25 20:38:00,34.3,28.8,30.00,ENE,67,2.5,4.5,80,0.00,,,0.00,WUHU21623XXSP,2013-02-26 02:38:00,
2013-02-25 20:43:00,34.3,28.8,30.01,East,90,3.1,4.0,80,0.00,,,0.00,WUHU21623XXSP,2013-02-26 02:43:00,
2013-02-25 20:48:00,34.3,28.8,30.00,East,90,0.0,3.8,80,0.00,,,0.00,WUHU21623XXSP,2013-02-26 02:48:00,
2013-02-25 20:53:00,34.3,28.8,30.00,East,90,0.0,2.9,80,0.00,,,0.00,WUHU21623XXSP,2013-02-26 02:53:00,
2013-02-25 20:58:00,34.3,28.8,30.00,ESE,112,6.3,6.3,80,0.00,,,0.00,WUHU21623XXSP,2013-02-26 02:58:00,
2013-02-25 21:03:00,34.3,28.8,30.00,ENE,67,7.8,7.8,80,0.00,,,0.00,WUHU21623XXSP,2013-02-26 03:03:00,
2013-02-25 21:08:00,34.3,28.8,30.00,East,90,4.0,7.8,80,0.00,,,0.00,WUHU21623XXSP,2013-02-26 03:08:00,
2013-02-25 21:13:00,34.3,28.8,30.00,East,90,4.0,4.0,80,0.00,,,0.00,WUHU21623XXSP,2013-02-26 03:13:00,
2013-02-25 21:18:00,34.3,28.8,30.00,East,90,3.6,4.0,80,0.00,,,0.00,WUHU21623XXSP,2013-02-26 03:18:00,
2013-02-25 21:23:00,34.3,28.8,29.99,ENE,67,0.0,3.6,80,0.00,,,0.00,WUHU21623XXSP,2013-02-26 03:23:00,
2013-02-25 21:28:00,34.3,28.8,29.99,ENE,67,8.1,8.1,80,0.00,,,0.00,WUHU21623XXSP,2013-02-26 03:28:00,
2013-02-25 21:33:00,34.5,28.9,29.99,ENE,67,8.1,8.1,80,0.00,,,0.00,WUHU21623XXSP,2013-02-26 03:33:00,
2013-02-25 21:38:00,34.5,28.9,29.99,NE,45,0.0,8.1,80,0.00,,,0.00,WUHU21623XXSP,2013-02-26 03:38:00,
2013-02-25 21:43:00,34.5,28.9,29.99,ENE,67,8.5,8.5,80,0.00,,,0.00,WUHU21623XXSP,2013-02-26 03:43:00,
2013-02-25 21:48:00,34.5,28.9,29.99,ENE,67,0.0,8.5,80,0.00,,,0.00,WUHU21623XXSP,2013-02-26 03:48:00,
2013-02-25 21:53:00,34.3,28.8,29.98,ENE,67,4.0,9.4,80,0.00,,,0.00,WUHU21623XXSP,2013-02-26 03:53:00,
2013-02-25 21:58:00,34.3,28.8,29.98,ENE,67,1.1,9.4,80,0.00,,,0.00,WUHU21623XXSP,2013-02-26 03:58:00,
2013-02-25 22:03:00,34.3,28.8,29.98,NE,45,4.3,7.2,80,0.00,,,0.00,WUHU21623XXSP,2013-02-26 04:03:00,
2013-02-25 22:08:00,34.3,28.8,29.98,NE,45,0.7,7.2,80,0.00,,,0.00,WUHU21623XXSP,2013-02-26 04:08:00,
2013-02-25 22:13:00,34.3,28.8,29.97,ENE,67,0.0,0.7,80,0.00,,,0.00,WUHU21623XXSP,2013-02-26 04:13:00,
2013-02-25 22:18:00,34.3,29.0,29.97,NE,45,2.2,2.2,81,0.00,,,0.00,WUHU21623XXSP,2013-02-26 04:18:00,
2013-02-25 22:23:00,34.3,29.0,29.96,ENE,67,0.0,2.2,81,0.00,,,0.00,WUHU21623XXSP,2013-02-26 04:23:00,
2013-02-25 22:28:00,34.3,29.0,29.96,NE,45,0.0,2.2,81,0.00,,,0.00,WUHU21623XXSP,2013-02-26 04:28:00,
2013-02-25 22:33:00,34.3,29.0,29.95,ENE,67,1.8,1.8,81,0.00,,,0.00,WUHU21623XXSP,2013-02-26 04:33:00,
2013-02-25 22:38:00,34.3,28.8,29.95,NE,45,8.9,8.9,80,0.00,,,0.00,WUHU21623XXSP,2013-02-26 04:38:00,
2013-02-25 22:44:00,34.3,28.8,29.95,NE,45,10.5,11.9,80,0.00,,,0.00,WUHU21623XXSP,2013-02-26 04:44:00,
2013-02-25 22:49:00,34.3,28.8,29.95,ENE,67,8.9,11.9,80,0.00,,,0.00,WUHU21623XXSP,2013-02-26 04:49:00,
2013-02-25 22:54:00,34.3,28.8,29.94,NE,45,6.7,10.5,80,0.00,,,0.00,WUHU21623XXSP,2013-02-26 04:54:00,
2013-02-25 22:59:00,34.3,28.8,29.95,NE,45,0.0,9.6,80,0.00,,,0.00,WUHU21623XXSP,2013-02-26 04:59:00,
2013-02-25 23:00:00,34.3,28.8,29.95,NE,45,0.0,9.6,80,0.00,,,0.00,WUHU21623XXSP,2013-02-26 05:00:00,
2013-02-25 23:05:00,34.5,28.9,29.94,ENE,67,7.6,9.2,80,0.00,,,0.00,WUHU21623XXSP,2013-02-26 05:05:00,
2013-02-25 23:10:00,34.5,28.9,29.94,ENE,67,8.7,9.2,80,0.00,,,0.00,WUHU21623XXSP,2013-02-26 05:10:00,
2013-02-25 23:15:00,34.5,28.6,29.94,ENE,67,2.7,8.9,79,0.00,,,0.00,WUHU21623XXSP,2013-02-26 05:15:00,
2013-02-25 23:20:00,34.5,28.6,29.94,ENE,67,12.1,12.1,79,0.00,,,0.00,WUHU21623XXSP,2013-02-26 05:20:00,
2013-02-25 23:25:00,34.5,28.6,29.94,ENE,67,5.1,12.1,79,0.00,,,0.00,WUHU21623XXSP,2013-02-26 05:25:00,
2013-02-25 23:30:00,34.3,28.4,29.94,ENE,67,9.6,9.6,79,0.00,,,0.00,WUHU21623XXSP,2013-02-26 05:30:00,
2013-02-25 23:35:00,34.3,28.6,29.93,East,90,0.0,9.6,79,0.00,,,0.00,WUHU21623XXSP,2013-02-26 05:35:00,
2013-02-25 23:40:00,34.3,28.4,29.93,ENE,67,4.5,4.5,79,0.00,,,0.00,WUHU21623XXSP,2013-02-26 05:40:00,
2013-02-25 23:45:00,34.5,28.4,29.91,ENE,67,0.0,4.5,79,0.00,,,0.00,WUHU21623XXSP,2013-02-26 05:45:00,
2013-02-25 23:50:00,34.5,28.3,29.91,ENE,67,6.0,6.0,78,0.00,,,0.00,WUHU21623XXSP,2013-02-26 05:50:00,
2013-02-25 23:55:00,34.3,28.4,29.91,ENE,67,12.8,12.8,79,0.00,,,0.00,WUHU21623XXSP,2013-02-26 05:55:00,